Station NIWS1 - Oyster Landing, North Inlet-Winyah Bay Reserve, SC Image indicating link to RSS feed of recent meteorological observations for station NIWS1


Conditions at NIWS1 as of
(6:00 am EDT)
1000 GMT on 09/01/2026:
     

Click on the graph icon in the table below to see a time series plot of the last five days of that observation.

5-day plot - Wind Direction Wind Direction (WDIR):NNE ( 20 deg true )
5-day plot - Wind Speed Wind Speed (WSPD): 2.9 kts
5-day plot - Atmospheric Pressure Atmospheric Pressure (PRES):30.03 in
5-day plot - Pressure Tendency Pressure Tendency (PTDY):-0.03 in ( Falling )
5-day plot - Air Temperature Air Temperature (ATMP): 74.7 °F
5-day plot - Dew Point Dew Point (DEWP): 73.8 °F
5-day plot -  Wind Speed, Wind Gust and Atmospheric Pressure Combined plot of Wind Speed, Gust, and Air Pressure
Previous observations
TIME
(EDT)
5-day plot - Wind Direction
WDIR
 
5-day plot - Wind Speed
WSPD
kts
5-day plot - Wind Gust
GST
kts
5-day plot - Wave Height
WVHT
ft
5-day plot - Dominant Wave Period
DPD
sec
5-day plot - Average Wave Period
APD
sec
5-day plot - Mean Wave Direction
MWD
 
5-day plot - Atmospheric Pressure
PRES
in
5-day plot - Pressure Tendency
PTDY
in
5-day plot - Air Temperature
ATMP
°F
5-day plot - Water Temperature
WTMP
°F
5-day plot - Dew Point
DEWP
°F
5-day plot - Salinity
SAL
psu
5-day plot - Visibility
VIS
nmi
5-day plot - Tide (above MLLW)
TIDE
ft
2026-09-01 05:45 amNNE 2.9-----30.03- 74.8- 73.9---
2026-09-01 05:30 amNNE 2.9-----30.03- 75.2- 73.9---
2026-09-01 05:15 amNNE 1.9-----30.03- 75.4- 74.1---
2026-09-01 05:00 amNNE 1.9-----30.03-0.03 75.4- 74.1---
2026-09-01 04:45 amNNE 1.9-----30.03- 75.6- 74.3---
2026-09-01 04:30 am NE 1.0-----30.03- 75.6- 74.3---
2026-09-01 04:15 amNNE 1.0-----30.06- 75.7- 74.5---
2026-09-01 04:00 am NE 1.0-----30.06+0.00 75.7- 74.5---
2026-09-01 03:45 amNNE 1.9-----30.06- 75.9- 74.7---
2026-09-01 03:30 amNNE 1.0-----30.03- 76.1- 74.8---
2026-09-01 03:15 amNNE 2.9-----30.03- 75.7- 74.5---
2026-09-01 03:00 am N 1.0-----30.06+0.00 75.9- 74.5---
2026-09-01 02:45 amNNE 1.0-----30.06- 76.5- 75.0---
2026-09-01 02:30 amNNE 1.0-----30.06- 76.5- 75.0---
2026-09-01 02:15 am N 1.0-----30.06- 76.6- 75.2---
2026-09-01 02:00 am N 1.0-----30.06+0.00 76.8- 75.4---
2026-09-01 01:45 am N 1.9-----30.06- 76.8- 75.4---
2026-09-01 01:30 amNNE 1.9-----30.06- 77.2- 75.7---
2026-09-01 01:15 amNNE 1.9-----30.06- 76.8- 75.4---
2026-09-01 01:00 amNNE 2.9-----30.06+0.00 76.8- 75.4---
2026-09-01 12:45 amNNE 1.9-----30.06- 77.5- 75.7---
2026-09-01 12:30 amNNE 1.0-----30.06- 78.4- 76.3---
2026-09-01 12:15 am- 0.0-----30.06- 79.3- 76.8---
2026-09-01 12:00 am- 0.0-----30.06+0.00 79.0- 76.5---
2026-08-31 11:45 pmNNW 1.9-----30.06- 80.4- 76.6---
2026-08-31 11:30 pmSSW 1.9-----30.06- 81.1- 77.0---
2026-08-31 11:15 pmSSW 2.9-----30.06- 81.1- 77.0---
2026-08-31 11:00 pmSSW 4.1-----30.06+0.00 81.1- 77.0---
2026-08-31 10:45 pmSSW 4.1-----30.06- 81.3- 76.5---
2026-08-31 10:30 pmSSW 4.1-----30.06- 81.3- 76.8---
2026-08-31 10:15 pm S 4.1-----30.06- 81.1- 76.6---
2026-08-31 10:00 pm S 2.9-----30.06+0.00 81.1- 76.6---
2026-08-31 09:45 pm S 2.9-----30.06- 81.1- 76.6---
2026-08-31 09:30 pm S 4.1-----30.06- 81.1- 76.6---
2026-08-31 09:15 pm S 4.1-----30.06- 81.1- 77.0---
2026-08-31 09:00 pm S 5.1-----30.06+0.00 81.1- 76.3---
2026-08-31 08:45 pm S 4.1-----30.06- 81.1- 75.9---
2026-08-31 08:30 pm S 5.1-----30.06- 81.1- 75.9---
2026-08-31 08:15 pm S 5.1-----30.06- 81.0- 76.1---
2026-08-31 08:00 pm S 4.1-----30.06+0.00 81.1- 76.3---
2026-08-31 07:45 pm S 5.1-----30.06- 81.3- 76.1---
2026-08-31 07:00 pm S 6.0-----30.06+0.00 81.7- 76.1---
2026-08-31 06:45 pmSSW 6.0-----30.06- 81.9- 76.6---
2026-08-31 06:30 pm S 6.0-----30.06- 81.9- 76.3---
2026-08-31 06:15 pm S 6.0-----30.06- 82.2- 75.9---
2026-08-31 06:00 pm S 5.1-----30.06+0.00 82.4- 75.7---
2026-08-31 05:45 pm S 5.1-----30.06- 82.4- 74.7---
2026-08-31 05:30 pmSSE 5.1-----30.06- 82.6- 74.8---
2026-08-31 05:15 pmSSE 5.1-----30.06- 82.8- 75.0---
2026-08-31 05:00 pm S 2.9-----30.06-0.03 82.6- 74.5---
2026-08-31 04:45 pmSSE 4.1-----30.06- 82.6- 75.2---
2026-08-31 04:30 pmSSE 4.1-----30.06- 82.4- 75.0---
2026-08-31 04:15 pm S 5.1-----30.06- 82.4- 75.4---
2026-08-31 04:00 pmSSE 5.1-----30.06-0.06 82.6- 74.8---
2026-08-31 03:45 pm S 5.1-----30.06- 82.6- 74.8---
2026-08-31 03:30 pm S 5.1-----30.06- 82.6- 74.5---
2026-08-31 03:15 pm S 5.1-----30.06- 82.4- 74.3---
2026-08-31 03:00 pm S 6.0-----30.06-0.06 82.4- 75.0---
2026-08-31 02:45 pmSSE 6.0-----30.06- 82.0- 74.3---
2026-08-31 02:30 pm S 6.0-----30.09- 82.0- 74.7---
2026-08-31 02:15 pm S 7.0-----30.09- 81.9- 74.5---
2026-08-31 02:00 pm S 7.0-----30.09-0.03 81.7- 75.0---
2026-08-31 01:45 pm S 7.0-----30.09- 81.7- 75.4---
2026-08-31 01:30 pmSSE 6.0-----30.12- 81.5- 74.8---
2026-08-31 01:15 pmSSE 6.0-----30.12- 81.9- 74.8---
2026-08-31 01:00 pmSSE 6.0-----30.12+0.03 82.0- 75.0---
2026-08-31 12:45 pmSSE 8.0-----30.12- 81.9- 74.8---
2026-08-31 12:30 pm SE 8.0-----30.12- 81.7- 75.0---
2026-08-31 12:15 pm SE 8.0-----30.12- 81.7- 75.0---
2026-08-31 12:00 pm SE 8.0-----30.12+0.03 81.5- 74.8---
2026-08-31 11:45 am SE 8.0-----30.12- 81.5- 74.8---
2026-08-31 11:30 am SE 8.0-----30.12- 81.5- 74.8---
2026-08-31 11:15 am SE 8.9-----30.12- 81.3- 75.0---
2026-08-31 11:00 am SE 8.9-----30.12+0.03 81.1- 74.8---
2026-08-31 10:45 am SE 9.9-----30.09- 81.5- 74.8---
2026-08-31 10:30 amESE 8.9-----30.09- 81.9- 74.1---
2026-08-31 10:15 amESE 8.9-----30.09- 81.5- 74.5---
2026-08-31 10:00 amESE 8.0-----30.09+0.03 81.1- 75.2---
2026-08-31 09:45 amESE 7.0-----30.09- 81.3- 75.4---
2026-08-31 09:30 amENE 4.1-----30.09- 80.8- 75.2---
2026-08-31 09:15 am E 4.1-----30.09- 80.1- 75.6---
2026-08-31 09:00 am E 4.1-----30.09+0.03 78.6- 75.2---
2026-08-31 08:45 amENE 4.1-----30.09- 77.2- 75.0---
2026-08-31 08:30 am NE 5.1-----30.09- 75.9- 74.7---
2026-08-31 08:15 am NE 6.0-----30.09- 75.2- 73.9---
2026-08-31 08:00 am NE 5.1-----30.09+0.03 75.4- 74.1---
2026-08-31 07:45 am NE 5.1-----30.06- 75.7- 74.5---
2026-08-31 07:30 am NE 5.1-----30.06- 75.7- 74.5---
2026-08-31 07:15 amNNE 4.1-----30.06- 75.7- 74.5---
2026-08-31 07:00 amNNE 2.9-----30.06+0.00 75.6- 74.3---